Date,TemperatureHighF,TemperatureAvgF,TemperatureLowF,DewpointHighF,DewpointAvgF,DewpointLowF,HumidityHigh,HumidityAvg,HumidityLow,PressureMaxIn,PressureMinIn,WindSpeedMaxMPH,WindSpeedAvgMPH,GustSpeedMaxMPH,PrecipitationSumIn
2013-3-1,33,31,29,31,29,28,95,93,88,29.80,29.66,3,0,7,0.01
2013-3-2,34,29,25,28,26,23,94,87,71,29.79,29.75,6,2,12,0.02
2013-3-3,35,28,24,29,25,20,93,86,77,29.75,29.66,6,2,13,0.01
2013-3-4,29,25,20,24,20,16,89,82,72,29.87,29.67,8,3,14,0.00
2013-3-5,39,31,26,33,28,23,94,88,78,30.15,29.87,5,0,13,0.00
2013-3-6,38,35,32,31,30,27,88,82,74,30.26,30.14,6,2,16,0.00
2013-3-7,32,30,29,27,23,21,86,76,66,30.29,30.22,6,1,15,0.00
2013-3-8,40,30,22,26,22,19,90,73,50,30.35,30.25,3,1,9,0.00
2013-3-9,44,29,16,28,22,14,92,75,48,30.39,30.32,3,0,6,0.00
2013-3-10,41,33,25,30,27,22,89,79,63,30.32,30.02,3,0,8,0.00
2013-3-11,45,38,31,35,32,29,94,79,64,30.05,29.82,3,0,8,0.02
2013-3-12,43,37,31,43,36,29,100,96,93,29.83,29.73,5,1,10,0.57
2013-3-13,40,35,30,30,27,22,95,73,50,29.78,29.70,8,2,16,0.01
2013-3-14,31,20,9,29,13,4,93,72,52,29.91,29.65,12,4,20,0.00
2013-3-15,25,17,7,22,12,4,93,82,58,29.91,29.60,5,1,10,0.02
2013-3-16,23,15,3,16,8,0,89,75,59,29.92,29.77,6,1,12,0.00
2013-3-17,23,12,0,6,-1,-6,84,58,29,30.35,29.91,13,3,20,0.00
2013-3-18,26,13,-4,9,0,-8,82,58,37,30.46,30.12,5,1,13,0.00
2013-3-19,26,23,19,24,19,6,92,85,50,30.12,29.73,7,2,20,0.77
2013-3-20,32,26,20,26,22,18,91,86,75,29.73,29.61,6,1,13,0.02
2013-3-21,32,27,20,24,22,17,92,83,72,29.65,29.60,9,3,17,0.00
2013-3-22,34,27,22,23,21,19,93,81,61,29.72,29.61,7,2,13,0.00
2013-3-23,39,31,23,25,22,19,88,72,54,29.80,29.64,15,6,29,0.00
2013-3-24,40,33,24,27,24,22,91,71,54,29.88,29.79,9,2,14,0.00
2013-3-25,44,35,23,31,27,21,93,74,50,29.82,29.66,8,2,16,0.00
2013-3-26,46,37,27,28,25,22,80,63,42,29.78,29.72,6,1,14,0.00
2013-3-27,46,38,27,33,29,24,89,70,50,29.93,29.76,6,1,13,0.00
2013-3-28,49,40,34,39,35,32,95,83,62,30.02,29.92,5,1,10,0.00
2013-3-29,48,41,31,34,29,18,82,63,42,30.05,29.99,8,3,16,0.00
2013-3-30,48,36,24,23,18,11,82,52,24,30.11,30.03,10,2,14,0.00
2013-3-31,51,37,23,38,27,20,96,71,43,30.03,29.64,6,0,13,0.25